Time,TemperatureF,DewpointF,PressureIn,WindDirection,WindDirectionDegrees,WindSpeedMPH,WindSpeedGustMPH,Humidity,HourlyPrecipIn,Conditions,Clouds,dailyrainin,SoftwareType,DateUTC
2013-02-13 00:01:00,45.0,36.0,30.22,NNW,339,0.0,2.0,71,0.00,,,0.00,,2013-02-13 08:01:00,
2013-02-13 00:11:00,45.0,36.0,30.22,NNW,339,0.0,2.0,71,0.00,,,0.00,,2013-02-13 08:11:00,
2013-02-13 00:21:00,44.0,36.0,30.22,NNW,336,0.0,2.0,73,0.00,,,0.00,,2013-02-13 08:21:00,
2013-02-13 00:31:00,44.0,36.0,30.22,NNW,335,0.0,1.0,73,0.00,,,0.00,,2013-02-13 08:31:00,
2013-02-13 00:42:00,44.0,36.0,30.22,NNW,335,0.0,1.0,73,0.00,,,0.00,,2013-02-13 08:42:00,
2013-02-13 00:52:00,45.0,36.0,30.22,NNW,332,0.0,2.0,71,0.00,,,0.00,,2013-02-13 08:52:00,
2013-02-13 01:01:00,44.0,37.0,30.22,NNW,332,0.0,2.0,76,0.00,,,0.00,,2013-02-13 09:01:00,
2013-02-13 01:11:00,44.0,37.0,30.22,NNW,332,0.0,2.0,76,0.00,,,0.00,,2013-02-13 09:11:00,
2013-02-13 01:21:00,43.0,37.0,30.21,NNW,332,0.0,2.0,80,0.00,,,0.00,,2013-02-13 09:21:00,
2013-02-13 01:31:00,43.0,37.0,30.20,NNW,335,0.0,3.0,79,0.00,,,0.00,,2013-02-13 09:31:00,
2013-02-13 01:41:00,45.0,37.0,30.20,NNW,335,0.0,1.0,74,0.00,,,0.00,,2013-02-13 09:41:00,
2013-02-13 01:52:00,45.0,37.0,30.20,NNW,335,0.0,1.0,74,0.00,,,0.00,,2013-02-13 09:52:00,
2013-02-13 02:01:00,44.0,37.0,30.20,NNW,335,0.0,1.0,75,0.00,,,0.00,,2013-02-13 10:01:00,
2013-02-13 02:11:00,44.0,37.0,30.20,NNW,335,0.0,1.0,75,0.00,,,0.00,,2013-02-13 10:11:00,
2013-02-13 02:21:00,43.0,35.0,30.20,NNW,335,0.0,1.0,74,0.00,,,0.00,,2013-02-13 10:21:00,
2013-02-13 02:31:00,43.0,35.0,30.19,NNW,335,1.0,3.0,73,0.00,,,0.00,,2013-02-13 10:31:00,
2013-02-13 02:41:00,44.0,35.0,30.19,NNW,335,1.0,2.0,71,0.00,,,0.00,,2013-02-13 10:41:00,
2013-02-13 02:52:00,44.0,35.0,30.19,NNW,335,1.0,2.0,71,0.00,,,0.00,,2013-02-13 10:52:00,
2013-02-13 03:01:00,43.0,35.0,30.18,NNW,334,0.0,1.0,72,0.00,,,0.00,,2013-02-13 11:01:00,
2013-02-13 03:11:00,43.0,35.0,30.18,NNW,334,0.0,1.0,72,0.00,,,0.00,,2013-02-13 11:11:00,
2013-02-13 03:22:00,42.0,34.0,30.18,NNW,334,1.0,2.0,74,0.00,,,0.00,,2013-02-13 11:22:00,
2013-02-13 03:31:00,44.0,34.0,30.18,NNW,334,0.0,2.0,68,0.00,,,0.00,,2013-02-13 11:31:00,
2013-02-13 03:41:00,43.0,33.0,30.18,NNW,334,0.0,1.0,68,0.00,,,0.00,,2013-02-13 11:41:00,
2013-02-13 03:52:00,43.0,33.0,30.18,NNW,334,0.0,1.0,68,0.00,,,0.00,,2013-02-13 11:52:00,
2013-02-13 04:02:00,42.0,33.0,30.19,SW,223,0.0,3.0,71,0.00,,,0.00,,2013-02-13 12:02:00,
2013-02-13 04:11:00,42.0,33.0,30.19,SW,223,0.0,3.0,71,0.00,,,0.00,,2013-02-13 12:11:00,
2013-02-13 04:21:00,42.0,33.0,30.19,WSW,244,1.0,3.0,69,0.00,,,0.00,,2013-02-13 12:21:00,
2013-02-13 04:31:00,44.0,33.0,30.19,WSW,244,0.0,1.0,64,0.00,,,0.00,,2013-02-13 12:31:00,
2013-02-13 04:42:00,44.0,33.0,30.19,WSW,244,0.0,1.0,64,0.00,,,0.00,,2013-02-13 12:42:00,
2013-02-13 04:52:00,43.0,32.0,30.18,WSW,244,0.0,1.0,66,0.00,,,0.00,,2013-02-13 12:52:00,
2013-02-13 05:02:00,43.0,32.0,30.19,WSW,244,0.0,0.0,64,0.00,,,0.00,,2013-02-13 13:02:00,
2013-02-13 05:11:00,43.0,32.0,30.19,WSW,244,0.0,0.0,64,0.00,,,0.00,,2013-02-13 13:11:00,
2013-02-13 05:21:00,44.0,33.0,30.19,WSW,244,0.0,1.0,65,0.00,,,0.00,,2013-02-13 13:21:00,
2013-02-13 05:31:00,44.0,33.0,30.19,West,271,0.0,3.0,64,0.00,,,0.00,,2013-02-13 13:31:00,
2013-02-13 05:41:00,44.0,33.0,30.19,West,271,0.0,3.0,64,0.00,,,0.00,,2013-02-13 13:41:00,
2013-02-13 05:52:00,44.0,33.0,30.19,West,271,0.0,3.0,64,0.00,,,0.00,,2013-02-13 13:52:00,
2013-02-13 06:01:00,43.0,33.0,30.19,West,271,0.0,2.0,67,0.00,,,0.00,,2013-02-13 14:01:00,
2013-02-13 06:11:00,43.0,33.0,30.19,West,271,0.0,2.0,67,0.00,,,0.00,,2013-02-13 14:11:00,
2013-02-13 06:21:00,44.0,32.0,30.19,West,271,0.0,0.0,63,0.00,,,0.00,,2013-02-13 14:21:00,
2013-02-13 06:31:00,43.0,32.0,30.20,West,271,0.0,1.0,66,0.00,,,0.00,,2013-02-13 14:31:00,
2013-02-13 06:41:00,43.0,32.0,30.20,West,271,0.0,2.0,65,0.00,,,0.00,,2013-02-13 14:41:00,
2013-02-13 06:52:00,43.0,32.0,30.20,West,271,0.0,2.0,65,0.00,,,0.00,,2013-02-13 14:52:00,
2013-02-13 07:01:00,43.0,32.0,30.20,West,271,0.0,1.0,66,0.00,,,0.00,,2013-02-13 15:01:00,
2013-02-13 07:11:00,46.0,34.0,30.20,West,271,0.0,1.0,62,0.00,,,0.00,,2013-02-13 15:11:00,
2013-02-13 07:21:00,46.0,34.0,30.20,West,271,0.0,1.0,62,0.00,,,0.00,,2013-02-13 15:21:00,
2013-02-13 07:31:00,46.0,35.0,30.21,West,271,0.0,1.0,65,0.00,,,0.00,,2013-02-13 15:31:00,
2013-02-13 07:41:00,46.0,35.0,30.21,West,271,0.0,1.0,65,0.00,,,0.00,,2013-02-13 15:41:00,
2013-02-13 07:52:00,50.0,37.0,30.21,West,274,0.0,3.0,60,0.00,,,0.00,,2013-02-13 15:52:00,
2013-02-13 08:01:00,51.0,38.0,30.21,West,274,0.0,2.0,61,0.00,,,0.00,,2013-02-13 16:01:00,
2013-02-13 08:11:00,52.0,41.0,30.21,West,275,1.0,2.0,66,0.00,,,0.00,,2013-02-13 16:11:00,
2013-02-13 08:21:00,52.0,41.0,30.21,West,275,1.0,2.0,66,0.00,,,0.00,,2013-02-13 16:21:00,
2013-02-13 08:31:00,53.0,42.0,30.21,NW,323,0.0,2.0,65,0.00,,,0.00,,2013-02-13 16:31:00,
2013-02-13 08:41:00,53.0,42.0,30.21,NW,323,0.0,2.0,65,0.00,,,0.00,,2013-02-13 16:41:00,
2013-02-13 08:52:00,54.0,41.0,30.21,SW,227,1.0,3.0,61,0.00,,,0.00,,2013-02-13 16:52:00,
2013-02-13 09:01:00,53.0,39.0,30.21,SW,224,1.0,3.0,60,0.00,,,0.00,,2013-02-13 17:01:00,
2013-02-13 09:11:00,53.0,39.0,30.21,SW,224,1.0,3.0,60,0.00,,,0.00,,2013-02-13 17:11:00,
2013-02-13 09:21:00,56.0,42.0,30.21,SSW,206,0.0,3.0,59,0.00,,,0.00,,2013-02-13 17:21:00,
2013-02-13 09:31:00,57.0,39.0,30.21,SSE,157,1.0,3.0,51,0.00,,,0.00,,2013-02-13 17:31:00,
2013-02-13 09:41:00,57.0,39.0,30.21,SSE,157,1.0,3.0,51,0.00,,,0.00,,2013-02-13 17:41:00,
2013-02-13 09:52:00,59.0,41.0,30.21,SE,140,2.0,5.0,52,0.00,,,0.00,,2013-02-13 17:52:00,
2013-02-13 10:01:00,59.0,41.0,30.21,SE,140,2.0,5.0,52,0.00,,,0.00,,2013-02-13 18:01:00,
2013-02-13 10:11:00,59.0,41.0,30.21,SE,140,2.0,5.0,52,0.00,,,0.00,,2013-02-13 18:11:00,
2013-02-13 10:22:00,61.0,41.0,30.21,South,189,1.0,6.0,48,0.00,,,0.00,,2013-02-13 18:22:00,
2013-02-13 10:31:00,62.0,44.0,30.21,SSE,148,2.0,6.0,51,0.00,,,0.00,,2013-02-13 18:31:00,
2013-02-13 10:42:00,62.0,44.0,30.21,SSE,148,2.0,6.0,51,0.00,,,0.00,,2013-02-13 18:42:00,
2013-02-13 10:52:00,62.0,42.0,30.21,WSW,238,4.0,8.0,48,0.00,,,0.00,,2013-02-13 18:52:00,
2013-02-13 11:01:00,59.0,44.0,30.21,South,190,6.0,10.0,58,0.00,,,0.00,,2013-02-13 19:01:00,
2013-02-13 11:11:00,59.0,46.0,30.20,South,180,5.0,11.0,61,0.00,,,0.00,,2013-02-13 19:11:00,
2013-02-13 11:21:00,59.0,46.0,30.20,South,180,5.0,11.0,61,0.00,,,0.00,,2013-02-13 19:21:00,
2013-02-13 11:31:00,58.0,46.0,30.20,South,190,4.0,10.0,64,0.00,,,0.00,,2013-02-13 19:31:00,
2013-02-13 11:41:00,58.0,46.0,30.20,South,190,4.0,10.0,64,0.00,,,0.00,,2013-02-13 19:41:00,
2013-02-13 11:52:00,61.0,47.0,30.19,West,281,3.0,7.0,61,0.00,,,0.00,,2013-02-13 19:52:00,
2013-02-13 12:01:00,61.0,46.0,30.18,SW,228,3.0,8.0,57,0.00,,,0.00,,2013-02-13 20:01:00,
2013-02-13 12:11:00,62.0,47.0,30.18,West,266,3.0,8.0,57,0.00,,,0.00,,2013-02-13 20:11:00,
2013-02-13 12:21:00,62.0,47.0,30.18,West,266,3.0,8.0,57,0.00,,,0.00,,2013-02-13 20:21:00,
2013-02-13 12:31:00,62.0,46.0,30.17,SW,218,3.0,8.0,56,0.00,,,0.00,,2013-02-13 20:31:00,
2013-02-13 12:41:00,62.0,46.0,30.16,West,281,2.0,6.0,56,0.00,,,0.00,,2013-02-13 20:41:00,
2013-02-13 12:52:00,62.0,46.0,30.16,West,281,2.0,6.0,56,0.00,,,0.00,,2013-02-13 20:52:00,
2013-02-13 13:01:00,63.0,47.0,30.15,West,263,2.0,8.0,55,0.00,,,0.00,,2013-02-13 21:01:00,
2013-02-13 13:11:00,63.0,47.0,30.15,West,263,2.0,8.0,55,0.00,,,0.00,,2013-02-13 21:11:00,
2013-02-13 13:21:00,63.0,47.0,30.15,West,263,2.0,8.0,55,0.00,,,0.00,,2013-02-13 21:21:00,
2013-02-13 13:31:00,63.0,49.0,30.14,SW,227,3.0,8.0,61,0.00,,,0.00,,2013-02-13 21:31:00,
2013-02-13 13:42:00,63.0,49.0,30.14,SW,227,3.0,8.0,61,0.00,,,0.00,,2013-02-13 21:42:00,
2013-02-13 13:52:00,63.0,49.0,30.14,WSW,257,1.0,8.0,61,0.00,,,0.00,,2013-02-13 21:52:00,
2013-02-13 14:02:00,63.0,50.0,30.13,WSW,254,2.0,8.0,62,0.00,,,0.00,,2013-02-13 22:02:00,
2013-02-13 14:11:00,63.0,50.0,30.13,WSW,254,2.0,8.0,62,0.00,,,0.00,,2013-02-13 22:11:00,
2013-02-13 14:21:00,63.0,49.0,30.13,SSW,212,2.0,6.0,60,0.00,,,0.00,,2013-02-13 22:21:00,
2013-02-13 14:31:00,64.0,49.0,30.12,WNW,286,3.0,7.0,58,0.00,,,0.00,,2013-02-13 22:31:00,
2013-02-13 14:42:00,64.0,49.0,30.12,WNW,286,3.0,7.0,58,0.00,,,0.00,,2013-02-13 22:42:00,
2013-02-13 14:52:00,64.0,50.0,30.11,WSW,240,1.0,5.0,60,0.00,,,0.00,,2013-02-13 22:52:00,
2013-02-13 15:01:00,63.0,49.0,30.11,SW,227,4.0,7.0,61,0.00,,,0.00,,2013-02-13 23:01:00,
2013-02-13 15:11:00,63.0,49.0,30.11,SW,227,4.0,7.0,61,0.00,,,0.00,,2013-02-13 23:11:00,
2013-02-13 15:21:00,62.0,49.0,30.11,WSW,245,2.0,9.0,62,0.00,,,0.00,,2013-02-13 23:21:00,
2013-02-13 15:31:00,62.0,47.0,30.11,WSW,250,2.0,7.0,58,0.00,,,0.00,,2013-02-13 23:31:00,
2013-02-13 15:41:00,62.0,47.0,30.11,WSW,250,2.0,7.0,58,0.00,,,0.00,,2013-02-13 23:41:00,
2013-02-13 15:52:00,62.0,47.0,30.11,West,272,2.0,7.0,57,0.00,,,0.00,,2013-02-13 23:52:00,
2013-02-13 16:01:00,61.0,47.0,30.10,WNW,290,1.0,5.0,60,0.00,,,0.00,,2013-02-14 00:01:00,
2013-02-13 16:11:00,61.0,47.0,30.10,WNW,290,1.0,5.0,60,0.00,,,0.00,,2013-02-14 00:11:00,
2013-02-13 16:21:00,61.0,47.0,30.10,WSW,246,2.0,5.0,61,0.00,,,0.00,,2013-02-14 00:21:00,
2013-02-13 16:31:00,60.0,49.0,30.10,SW,233,1.0,5.0,67,0.00,,,0.00,,2013-02-14 00:31:00,
2013-02-13 16:41:00,60.0,49.0,30.10,SW,233,1.0,5.0,67,0.00,,,0.00,,2013-02-14 00:41:00,
2013-02-13 16:52:00,59.0,48.0,30.10,West,279,4.0,6.0,68,0.00,,,0.00,,2013-02-14 00:52:00,
2013-02-13 17:01:00,58.0,48.0,30.10,WSW,246,1.0,4.0,70,0.00,,,0.00,,2013-02-14 01:01:00,
2013-02-13 17:11:00,58.0,48.0,30.10,WSW,246,1.0,4.0,70,0.00,,,0.00,,2013-02-14 01:11:00,
2013-02-13 17:21:00,58.0,48.0,30.10,West,275,0.0,3.0,70,0.00,,,0.00,,2013-02-14 01:21:00,
2013-02-13 17:31:00,56.0,47.0,30.10,SW,225,1.0,3.0,71,0.00,,,0.00,,2013-02-14 01:31:00,
2013-02-13 17:41:00,56.0,47.0,30.10,SW,225,1.0,3.0,71,0.00,,,0.00,,2013-02-14 01:41:00,
2013-02-13 17:51:00,55.0,46.0,30.10,SW,225,0.0,2.0,71,0.00,,,0.00,,2013-02-14 01:51:00,
2013-02-13 18:01:00,54.0,46.0,30.11,West,266,0.0,3.0,75,0.00,,,0.00,,2013-02-14 02:01:00,
2013-02-13 18:11:00,54.0,46.0,30.11,West,266,0.0,3.0,75,0.00,,,0.00,,2013-02-14 02:11:00,
2013-02-13 18:21:00,53.0,46.0,30.11,West,269,0.0,1.0,76,0.00,,,0.00,,2013-02-14 02:21:00,
2013-02-13 18:31:00,52.0,45.0,30.11,West,269,0.0,1.0,77,0.00,,,0.00,,2013-02-14 02:31:00,
2013-02-13 18:41:00,52.0,45.0,30.11,West,269,0.0,1.0,77,0.00,,,0.00,,2013-02-14 02:41:00,
2013-02-13 18:51:00,52.0,45.0,30.11,West,269,0.0,1.0,77,0.00,,,0.00,,2013-02-14 02:51:00,
2013-02-13 19:02:00,51.0,44.0,30.11,NNE,17,0.0,3.0,77,0.00,,,0.00,,2013-02-14 03:02:00,
2013-02-13 19:11:00,51.0,44.0,30.11,NNE,17,0.0,3.0,77,0.00,,,0.00,,2013-02-14 03:11:00,
2013-02-13 19:21:00,51.0,43.0,30.11,NNE,17,0.0,1.0,75,0.00,,,0.00,,2013-02-14 03:21:00,
2013-02-13 19:31:00,51.0,42.0,30.11,NNE,17,0.0,2.0,71,0.00,,,0.00,,2013-02-14 03:31:00,
2013-02-13 19:42:00,51.0,42.0,30.11,NNE,17,0.0,2.0,71,0.00,,,0.00,,2013-02-14 03:42:00,
2013-02-13 19:52:00,52.0,42.0,30.11,NNW,342,1.0,4.0,69,0.00,,,0.00,,2013-02-14 03:52:00,
2013-02-13 20:01:00,51.0,42.0,30.11,WNW,294,1.0,3.0,72,0.00,,,0.00,,2013-02-14 04:01:00,
2013-02-13 20:11:00,50.0,42.0,30.11,West,269,0.0,2.0,73,0.00,,,0.00,,2013-02-14 04:11:00,
2013-02-13 20:21:00,50.0,42.0,30.11,West,269,0.0,2.0,73,0.00,,,0.00,,2013-02-14 04:21:00,
2013-02-13 20:31:00,49.0,41.0,30.11,West,269,0.0,1.0,75,0.00,,,0.00,,2013-02-14 04:31:00,
2013-02-13 20:41:00,49.0,41.0,30.11,West,269,0.0,1.0,75,0.00,,,0.00,,2013-02-14 04:41:00,
2013-02-13 20:51:00,49.0,41.0,30.11,West,269,0.0,1.0,75,0.00,,,0.00,,2013-02-14 04:51:00,
2013-02-13 21:01:00,49.0,42.0,30.12,West,269,0.0,1.0,78,0.00,,,0.00,,2013-02-14 05:01:00,
2013-02-13 21:11:00,49.0,42.0,30.12,West,269,0.0,1.0,78,0.00,,,0.00,,2013-02-14 05:11:00,
2013-02-13 21:21:00,49.0,42.0,30.12,West,269,0.0,1.0,78,0.00,,,0.00,,2013-02-14 05:21:00,
2013-02-13 21:31:00,49.0,42.0,30.12,West,270,0.0,2.0,77,0.00,,,0.00,,2013-02-14 05:31:00,
2013-02-13 21:41:00,49.0,42.0,30.12,West,270,0.0,2.0,77,0.00,,,0.00,,2013-02-14 05:41:00,
2013-02-13 21:52:00,49.0,42.0,30.12,North,355,1.0,3.0,77,0.00,,,0.00,,2013-02-14 05:52:00,
2013-02-13 22:01:00,49.0,42.0,30.12,North,5,2.0,4.0,77,0.00,,,0.00,,2013-02-14 06:01:00,
2013-02-13 22:11:00,50.0,43.0,30.12,North,5,0.0,2.0,76,0.00,,,0.00,,2013-02-14 06:11:00,
2013-02-13 22:21:00,50.0,43.0,30.12,North,5,0.0,2.0,76,0.00,,,0.00,,2013-02-14 06:21:00,
2013-02-13 22:31:00,50.0,43.0,30.13,North,5,0.0,1.0,76,0.00,,,0.00,,2013-02-14 06:31:00,
2013-02-13 22:41:00,50.0,43.0,30.13,North,5,0.0,1.0,76,0.00,,,0.00,,2013-02-14 06:41:00,
2013-02-13 22:52:00,50.0,44.0,30.13,North,5,0.0,2.0,80,0.00,,,0.00,,2013-02-14 06:52:00,
2013-02-13 23:01:00,49.0,43.0,30.13,NNE,13,0.0,2.0,81,0.00,,,0.00,,2013-02-14 07:01:00,
2013-02-13 23:21:00,50.0,43.0,30.14,NNE,13,0.0,1.0,77,0.00,,,0.00,,2013-02-14 07:21:00,
2013-02-13 23:31:00,49.0,42.0,30.14,NNE,13,0.0,1.0,78,0.00,,,0.00,,2013-02-14 07:31:00,
2013-02-13 23:41:00,49.0,42.0,30.14,NNE,13,0.0,1.0,78,0.00,,,0.00,,2013-02-14 07:41:00,
2013-02-13 23:52:00,48.0,41.0,30.14,NNE,13,1.0,2.0,78,0.00,,,0.00,,2013-02-14 07:52:00,